Flag for U.S.A. Weather past 2 weeks in Germantown, Maryland, U.S.A.

Now
77 °F

Partly sunny.


Feels Like: 78 °F
Forecast: 66 / 83 °F
Wind: No wind

Location: Frederick Municipal Airport

Current Time: Jun 30, 2015 at 8:22:36 PM

Latest Report: Jun 30, 2015 at 7:47 PM


Visibility: 10 mi

Pressure: 29.83 "Hg

Humidity: 89%

Dew point: 73 °F

Location of GermantownLocation

Historic Weather in Germantown — Graph

°F

Germantown temperature yesterday

Maximum temperature yesterday: 82 °F (at 3:48 PM)
Minimum temperature yesterday: 54 °F (at 4:45 AM)
Average temperature yesterday: 66 °F

Past Weeks' High & Low Weather Summary

 TemperatureHumidityPressure
High99 °F (Jun 18, 3:01 PM)100% (Jun 15, 10:00 PM)30.16 "Hg (Jun 15, 10:00 PM)
Low54 °F (Jun 29, 4:45 AM)12% (Jun 23, 3:55 PM)27.23 "Hg (Jun 30, 5:45 PM)
Average72 °F88%29.97 "Hg
* Reported Jun 15 6:50 PM — Jun 30 6:57 PM, Germantown, Weather by CustomWeather, © 2015

Note: Actual official high and low records may vary slightly from our data, if they occured in-between our weather recording intervals... More about our weather records

Advertising

Germantown weather history for previous 24 hours

 ConditionsComfort  
Time TempWeatherWind HumidityBarometerVisibility
6:57 PM
Tue, Jun 30
79 °FPartly sunny.No wind79%29.82 "Hg10 mi
5:45 PMN/ALight rain.6 mphN/A27.23 "Hg10 mi
4:47 PM84 °FBroken clouds.7 mph66%29.81 "Hg10 mi
3:47 PM88 °FBroken clouds.9 mph59%29.84 "Hg10 mi
2:55 PM86 °FSunny.8 mph62%29.85 "Hg10 mi
1:50 PM84 °FScattered clouds.7 mph66%29.88 "Hg10 mi
12:45 PM82 °FScattered clouds.8 mph74%29.91 "Hg10 mi
11:50 AM81 °FBroken clouds.No wind74%29.92 "Hg10 mi
10:48 AM75 °FMore clouds than sun.6 mph89%29.93 "Hg10 mi
9:48 AM73 °FMostly cloudy.8 mph89%29.94 "Hg10 mi
8:48 AM72 °FPartly sunny.No wind94%29.94 "Hg10 mi
7:47 AM68 °FMostly cloudy.No wind100%29.93 "Hg10 mi
6:50 AM66 °FCloudy.No wind94%29.93 "Hg10 mi
6:25 AM64 °FMostly cloudy.No wind100%29.93 "Hg10 mi
6:10 AM64 °FThundershowers. Mostly cloudy.No wind94%29.92 "Hg10 mi
5:50 AM63 °FThundershowers. Partly cloudy.No wind100%29.93 "Hg10 mi
5:30 AM63 °FPassing clouds.3 mph100%29.92 "Hg10 mi
5:10 AM63 °FPassing clouds.No wind100%29.92 "Hg10 mi
4:50 AM63 °FClear.No wind100%29.92 "Hg10 mi
4:30 AM63 °FClear.No wind100%29.92 "Hg10 mi
4:10 AM61 °FFog.No wind100%29.92 "Hg3 mi
3:50 AM63 °FClear.No wind94%29.93 "Hg10 mi
3:30 AM63 °FClear.No wind94%29.93 "Hg10 mi
3:10 AM61 °FClear.No wind100%29.93 "Hg10 mi
2:50 AM63 °FClear.No wind94%29.94 "Hg10 mi
2:30 AM63 °FClear.No wind94%29.94 "Hg10 mi
2:10 AM63 °FClear.No wind94%29.94 "Hg10 mi
1:50 AM63 °FClear.No wind94%29.95 "Hg10 mi
1:30 AM64 °FClear.No wind88%29.95 "Hg10 mi
1:10 AM64 °FPassing clouds.3 mph88%29.96 "Hg10 mi
12:50 AM66 °FPassing clouds.3 mph83%29.96 "Hg10 mi
12:30 AM66 °FPassing clouds.3 mph83%29.96 "Hg10 mi
11:50 PM
Mon, Jun 29
70 °FOvercast.No wind78%29.96 "Hg10 mi
10:50 PM68 °FOvercast.No wind78%29.97 "Hg10 mi
10:30 PM68 °FPartly cloudy.No wind78%29.97 "Hg10 mi
10:10 PM70 °FPassing clouds.No wind73%29.97 "Hg10 mi
9:50 PM72 °FPartly cloudy.No wind65%29.96 "Hg10 mi
9:30 PM72 °FPartly sunny.3 mph65%29.96 "Hg10 mi
9:10 PM73 °FOvercast.3 mph61%29.96 "Hg10 mi
8:50 PM73 °FOvercast.3 mph61%29.96 "Hg10 mi
8:30 PM73 °FOvercast.3 mph61%29.96 "Hg10 mi
Weather by CustomWeather, © 2015

See weather overviewHow to use our weather pages